User: anonymous   Login
Location: Unspecified
(0.0000°N, 0.0000°E)
Time: 08:43:24
(UTC+00:00)
Language:

SARAL - Orbit

View from above orbital plane
View from above orbital plane
View from above satellite
View from above satellite

Ground track
Ground track

The orbit data is extracted from the following two-line orbital elements,

1 39086U 13009A   18347.82232160 -.00000021  00000-0  82692-5 0  9992
2 39086  98.5378 171.9133 0002166  86.8540 273.2891 14.32028111303055
Epoch (UTC): 13 December 2018 19:44:08
Eccentricity: 0.0002166
inclination: 98.5378°
perigee height: 783 km
apogee height: 786 km
right ascension of ascending node: 171.9133°
argument of perigee: 86.8540°
revolutions per day: 14.32028111
mean anomaly at epoch: 273.2891°
orbit number at epoch: 30305

The dashed part of the orbit path shows where the satellite is in the earth's shadow,  

DLR